Weather in Mexico

United States     39°10′13″N   91°52′57″W
temp.,
°C
wind,
m/s
gust,
m/s
humid.,
%
clouds,
%
prec.,
mm/h
press.,
hPa
HPBL,
m
16 may, sun
sun1601:00+12sse239424 0.0 101980
04:00+13sse238981 0.0 101981
07:00+12se2395100 0.0 101998
10:00+18sse3480100 0.3 1020580
13:00+20se458172 0.6 1018683
16:00+21se358077 1.1 1015624
19:00+18s2394100 9.4 101450
22:00+17wnw3895100 12.4 1015246
17 may, mon
mon1701:00+16ssw2399100 15.4 101683
04:00+15ssw1299100 4.3 101535
07:00+16e3699100 7.3 1015228
10:00+16e4898100 2.8 1015355
13:00+16ene4698100 4.8 1014345
16:00+17ene2398100 0.7 1013309
19:00+17e1298100 0.8 101388
22:00+16ese129995 0.1 101458
18 may, tue
tue1801:00+16e2399100 0.1 101394
04:00+16se1199100 0.0 101338
07:00+17sw139897 0.1 1014144
10:00+19sw2290100 0.1 1015411
13:00+23ssw347183 0.3 10141063
16:00+23ssw3477100 0.3 1013651
19:00+22se3686100 1.4 1013223
22:00+18ssw3892100 3.1 1014155
19 may, wed
wed1901:00+18s41197100 4.4 1014388
04:00+16se51297100 0.1 1014546
07:00+19se51397100 1.6 1014682
10:00+19s71393100 2.3 1015770
13:00+20s598999 2.4 1016775
16:00+21s61186100 0.4 1016812
19:00+21s6119073 0.5 1016627
22:00+19sse5139695 0.0 1017419
20 may, thu
thu2001:00+19sse41293100 0.0 1018446
04:00+18sse41297100 0.9 1018440
07:00+18sse41298100 5.6 1020512
10:00+21ssw71287100 0.4 1020920
13:00+24ssw71077100 1.5 10201159
16:00+25ssw71074100 0.4 10201256
19:00+23s5117887 0.4 1020413
22:00+20s412896 0.0 1021248